[[{"header":{"parameterUnit":"m.s-1","parameterCategory":1,"la1":30.2991,"la2":30.254,"lo1":-89.0895,"lo2":-89.0444,"dy":0.0017,"dx":0.0017,"nx":28,"ny":28,"refTime":"2025-08-16T21:00:00:Z","depth":0,"parameterNumber":2,"parameterNumberName":"U-component_of_WINDS"},"data":[0,0,0,0,0,0,0,0,0,0,0,0,0,0,0,0,0,0,0,0,0,0,0,0,0,0,0,0,0,0,0,0,0,0,0,0,0,0,0,0,0,0,0,0,0,0,0,0,0,0,0,0,0,0,0,0,0,0,2.1136,2.1136,0,2.1157,2.1157,2.1157,2.1103,2.1101,2.11,2.1098,2.1124,2.1126,2.1129,0,0,0,0,0,0,0,0,0,0,0,0,0,2.1051,2.1052,2.1136,2.1136,2.1136,2.1157,2.1157,2.1158,2.1103,2.1101,2.1099,2.1097,2.1123,2.1126,2.1129,0,0,0,0,0,0,0,0,0,0,0,0,0,2.1082,2.1053,2.1136,2.1112,2.111,2.1157,2.1157,2.1158,2.1104,2.1101,2.1099,2.1096,2.1122,2.1126,2.1129,2.1202,0,0,2.114,2.1141,0,0,0,0,0,0,0,0,2.108,2.1085,2.1115,2.1113,2.1111,2.1125,2.1137,2.1173,2.1105,2.1106,2.1098,2.1095,2.1127,2.113,2.1139,2.1203,2.1204,2.114,2.1142,2.1144,2.1145,0,0,0,0,0,0,0,2.1078,2.1083,2.1144,2.1115,2.1113,2.1101,2.1102,2.1143,2.1131,2.1106,2.1102,2.1105,2.1125,2.1136,2.114,2.1205,2.114,2.1143,2.1145,2.1146,2.1327,2.133,0,0,0,0,0,0,2.1078,2.1082,2.1144,2.1145,2.1089,2.1104,2.1106,2.1123,2.113,2.1129,2.1107,2.1102,2.1132,2.1136,2.114,2.1224,2.1144,2.1147,2.1149,2.1324,2.1328,2.1331,0,0,0,0,0,0,2.1077,2.1084,2.1143,2.1112,2.1119,2.1108,2.1128,2.1125,2.1136,2.1131,2.1129,2.1121,2.113,2.1135,2.1186,2.1224,2.1148,2.1151,2.1321,2.1325,2.1329,2.1393,0,0,0,0,0,0,2.1074,2.1084,2.1111,2.1113,2.1121,2.1188,2.113,2.1127,2.1141,2.1135,2.1143,2.1142,2.1128,2.1181,2.119,2.1228,2.1154,2.1318,2.1323,2.1328,2.1388,2.1399,2.1409,0,0,0,0,0,2.1072,2.113,2.1113,2.112,2.1154,2.119,2.1194,2.1176,2.1145,2.1172,2.1168,2.1142,2.1219,2.1187,2.1196,2.1235,2.1315,2.1321,2.1327,2.1383,2.1397,2.1408,0,0,0,0,0,0,2.1134,2.113,2.1111,2.1171,2.1181,2.1181,2.1214,2.1192,2.1212,2.1206,2.1183,2.1186,2.124,2.1243,2.1208,2.1305,2.1262,2.127,2.1301,2.1314,2.1324,2.1322,2.1157,0,0,0,0,0,2.1155,2.1183,2.1178,2.1232,2.1238,2.1225,2.1241,2.1225,2.1235,2.124,2.124,2.1252,2.1278,2.1297,2.1321,2.1388,2.1388,2.142,2.143,2.1439,2.1446,2.1479,2.1493,2.1351,2.1351,2.1351,0,0,2.1198,2.1199,2.1219,2.1245,2.125,2.1281,2.1229,2.1264,2.1287,2.1246,2.1292,2.1293,2.1305,2.1363,2.1389,2.1367,2.1485,2.1447,2.1454,2.1456,2.1487,2.15,2.1512,2.1355,2.1354,2.1353,0,0,2.1292,2.1296,2.134,2.1347,2.1355,2.1346,2.1357,2.136,2.1358,2.1404,2.1373,2.14,2.1447,2.1456,2.1467,2.1562,2.1537,2.1571,2.1625,2.1658,2.1669,2.1679,2.1711,2.1723,2.1578,2.1578,2.1578,0,2.1345,2.1388,2.1366,2.1402,2.1414,2.1376,2.142,2.1428,2.1446,2.1455,2.143,2.1486,2.1492,2.155,2.1573,2.1584,2.1595,2.1569,2.1669,2.1679,2.1688,2.1718,2.173,2.1582,2.1582,2.1581,2.1581,0,2.1452,2.1483,2.1517,2.1532,2.1548,2.1588,2.1573,2.1592,2.1575,2.1569,2.1616,2.1621,2.1644,2.1658,2.1643,2.1714,2.17,2.1673,2.1628,2.1705,2.1733,2.1745,2.1588,2.1586,2.1585,2.1584,0,0,2.1587,2.1587,2.16,2.1605,2.1611,2.1635,2.1673,2.1694,2.171,2.1723,2.1754,2.1794,2.1768,2.178,2.1766,2.1795,2.1867,2.1764,2.1764,2.1781,2.1944,2.1963,2.1977,2.1852,2.1854,2.1856,2.1942,0,2.1678,2.1741,2.1722,2.1786,2.1813,2.1777,2.181,2.1817,2.1813,2.1835,2.1831,2.1858,2.1823,2.1829,2.1857,2.1853,2.19,2.1847,2.188,2.1881,2.1876,2.1992,2.2013,2.2094,2.1953,2.1955,2.1957,0,2.1793,2.1807,2.1873,2.1872,2.1883,2.1913,2.193,2.1952,2.196,2.1954,2.1966,2.1946,2.1983,2.194,2.199,2.1955,2.1967,2.1968,2.197,2.1971,2.1922,2.1994,2.212,2.2132,2.1974,2.1973,2.1971,0,2.1882,2.1918,2.1962,2.1968,2.1968,2.199,2.1991,2.1996,2.201,2.2025,2.2033,2.2054,2.2064,2.2081,2.2066,2.2036,2.2119,2.2074,2.2114,2.2115,2.2133,2.2131,2.226,2.2144,2.2144,2.2144,2.2143,0,2.1985,2.2026,2.2001,2.2028,2.2073,2.2051,2.2096,2.2094,2.2098,2.2124,2.2095,2.212,2.21,2.2123,2.2113,2.2155,2.2161,2.2157,2.2153,2.2159,2.2159,2.2166,2.2159,2.2147,2.2146,2.2145,2.2145,0,2.2091,2.2077,2.2121,2.2117,2.2117,2.215,2.2147,2.2172,2.2164,2.2197,2.2204,2.2192,2.2218,2.2205,2.2233,2.2225,2.2279,2.2269,2.2276,2.2273,2.2313,2.2308,2.2449,2.2465,2.234,2.2342,2.2343,0,2.2157,2.2188,2.2186,2.22,2.2203,2.2227,2.2239,2.2218,2.2232,2.2242,2.2265,2.2288,2.2305,2.2348,2.2343,2.2363,2.2352,2.24,2.2355,2.2358,2.235,2.2348,2.235,2.2408,2.241,2.2411,2.2412,0,2.2275,2.2266,2.2284,2.2299,2.2314,2.2326,2.2335,2.2349,2.2327,2.2345,2.237,2.2383,2.2409,2.2432,2.2449,2.2451,2.2428,2.2426,2.2436,2.2441,2.2443,2.244,2.2299,2.2423,2.2422,2.2421,2.242,2.242,2.2362,2.2387,2.2388,2.2409,2.2413,2.2422,2.2444,2.2437,2.2457,2.2475,2.2462,2.2491,2.2496,2.2517,2.2522,2.2544,2.2525,2.2541,2.2544,2.2548,2.2552,2.244,2.2548,2.2548,2.2547,2.2547,2.2547,0,2.2477,2.2475,2.2495,2.2507,2.2523,2.2498,2.2506,2.2521,2.2546,2.2552,2.2569,2.2596,2.2617,2.2613,2.2632,2.2651,2.2641,2.2657,2.2654,2.2655,2.2569,2.2557,2.2664,2.2664,2.2664,2.2664,2.2664,2.2664,2.2538,2.2577,2.2568,2.2608,2.2607,2.2633,2.2639,2.2647,2.2651,2.2682,2.2699,2.2695,2.2697,2.2715,2.2733,2.2732,2.2739,2.2759,2.2753,2.2673,2.2661,2.265,2.2639,2.2761,2.2761,2.2836,2.2837,2.2838]},{"header":{"parameterUnit":"m.s-1","parameterCategory":1,"la1":30.2991,"la2":30.254,"lo1":-89.0895,"lo2":-89.0444,"dy":0.0017,"dx":0.0017,"nx":28,"ny":28,"refTime":"2025-08-16T21:00:00:Z","depth":0,"parameterNumber":3,"parameterNumberName":"V-component_of_WINDS"},"data":[0,0,0,0,0,0,0,0,0,0,0,0,0,0,0,0,0,0,0,0,0,0,0,0,0,0,0,0,0,0,0,0,0,0,0,0,0,0,0,0,0,0,0,0,0,0,0,0,0,0,0,0,0,0,0,0,0,0,0.6844,0.6846,0,0.703,0.7032,0.7034,0.7078,0.7077,0.7075,0.7074,0.7268,0.7274,0.728,0,0,0,0,0,0,0,0,0,0,0,0,0,0.653,0.6536,0.6844,0.6846,0.6848,0.703,0.7032,0.7035,0.7078,0.7077,0.7075,0.7074,0.7266,0.7273,0.7281,0,0,0,0,0,0,0,0,0,0,0,0,0,0.6686,0.6537,0.6843,0.6892,0.6898,0.7029,0.7032,0.7035,0.7079,0.7077,0.7075,0.7073,0.7263,0.7273,0.7282,0.7379,0,0,0.7311,0.7315,0,0,0,0,0,0,0,0,0.6677,0.6698,0.6882,0.6889,0.6896,0.7029,0.6993,0.7151,0.7079,0.701,0.7074,0.7072,0.719,0.7206,0.7245,0.7388,0.7397,0.7312,0.7318,0.7322,0.7325,0,0,0,0,0,0,0,0.6666,0.669,0.6918,0.6885,0.6893,0.6906,0.6926,0.7023,0.7109,0.7016,0.702,0.7041,0.7194,0.7236,0.725,0.7399,0.7312,0.732,0.7326,0.733,0.7633,0.7636,0,0,0,0,0,0,0.6647,0.6681,0.6912,0.6923,0.678,0.6913,0.6935,0.6988,0.7108,0.7124,0.7042,0.7042,0.722,0.7239,0.7257,0.7379,0.7322,0.7331,0.7336,0.7631,0.7634,0.7636,0,0,0,0,0,0,0.664,0.6667,0.6904,0.6803,0.6834,0.692,0.6979,0.6993,0.7035,0.7128,0.7143,0.7069,0.7219,0.7243,0.7349,0.7387,0.7335,0.7344,0.7628,0.7632,0.7635,0.7625,0,0,0,0,0,0,0.6631,0.6664,0.6701,0.6803,0.6839,0.6992,0.6982,0.6998,0.7051,0.7052,0.7157,0.7173,0.722,0.7334,0.7358,0.7399,0.7351,0.7625,0.763,0.7634,0.7622,0.7627,0.7632,0,0,0,0,0,0.6619,0.6691,0.6703,0.673,0.6887,0.6994,0.7015,0.7066,0.7054,0.7092,0.7152,0.7169,0.7378,0.7344,0.7372,0.7416,0.7623,0.7629,0.7634,0.762,0.7626,0.7632,0,0,0,0,0,0,0.6592,0.6705,0.6719,0.6826,0.69,0.7001,0.7051,0.7072,0.7151,0.715,0.7212,0.7235,0.7337,0.7387,0.7347,0.7517,0.7501,0.7512,0.7481,0.7488,0.7492,0.7479,0.7359,0,0,0,0,0,0.6598,0.6674,0.677,0.6855,0.6891,0.6964,0.7013,0.7046,0.7126,0.7158,0.7225,0.7302,0.7386,0.7439,0.7521,0.7629,0.7653,0.7673,0.7678,0.7682,0.7691,0.7753,0.7764,0.7654,0.7654,0.7654,0,0,0.6612,0.6684,0.6728,0.6851,0.6912,0.6991,0.6991,0.7074,0.7133,0.7171,0.7274,0.7326,0.7417,0.7524,0.7575,0.7569,0.7726,0.7688,0.769,0.7698,0.776,0.777,0.7779,0.7657,0.7657,0.7656,0,0,0.6678,0.6739,0.6817,0.6878,0.697,0.7019,0.7037,0.7136,0.7172,0.7276,0.7306,0.7378,0.752,0.7584,0.7634,0.7725,0.7744,0.775,0.7776,0.7836,0.7845,0.7853,0.7887,0.7898,0.7758,0.7758,0.7758,0,0.6685,0.6803,0.6855,0.6937,0.6991,0.7027,0.7108,0.7165,0.7279,0.7316,0.7308,0.7487,0.7551,0.7674,0.7696,0.7735,0.776,0.7739,0.7839,0.7848,0.7856,0.7889,0.7901,0.7758,0.7758,0.7758,0.7758,0,0.6807,0.6889,0.6941,0.705,0.711,0.719,0.7256,0.731,0.7339,0.7388,0.7495,0.7572,0.7671,0.7702,0.7731,0.783,0.7824,0.7827,0.7812,0.7866,0.7898,0.7911,0.7758,0.7758,0.7758,0.7758,0,0,0.6862,0.6998,0.7016,0.7067,0.7171,0.7236,0.7319,0.7414,0.746,0.7538,0.761,0.7729,0.7733,0.779,0.7826,0.7879,0.7947,0.7876,0.7879,0.7887,0.8063,0.8062,0.8075,0.796,0.7963,0.7965,0.8056,0,0.6942,0.709,0.7139,0.7263,0.734,0.7376,0.7448,0.7521,0.757,0.7643,0.7698,0.7781,0.7779,0.7814,0.7867,0.7927,0.7984,0.7921,0.803,0.8033,0.8007,0.8092,0.809,0.8173,0.8069,0.8071,0.8073,0,0.7055,0.7134,0.7264,0.736,0.7394,0.7458,0.755,0.7619,0.7703,0.7735,0.7799,0.7831,0.7921,0.7899,0.8024,0.7981,0.8028,0.8065,0.8069,0.8082,0.8057,0.8109,0.82,0.8213,0.8092,0.8091,0.8089,0,0.7083,0.7222,0.7318,0.736,0.7473,0.7518,0.7567,0.7649,0.7703,0.7784,0.782,0.791,0.796,0.8029,0.8086,0.8065,0.8206,0.8189,0.8237,0.8236,0.8266,0.8264,0.8368,0.8294,0.8294,0.8294,0.8293,0,0.7168,0.7247,0.7333,0.7392,0.7482,0.7539,0.7627,0.7679,0.7751,0.7822,0.7859,0.7925,0.7995,0.8071,0.8115,0.8213,0.8235,0.8265,0.8276,0.8262,0.8259,0.8295,0.8291,0.8297,0.8296,0.8296,0.8295,0,0.7216,0.7276,0.7384,0.7482,0.7508,0.757,0.7655,0.7715,0.7765,0.7855,0.7879,0.7959,0.805,0.8113,0.823,0.826,0.8366,0.8376,0.8338,0.8344,0.8388,0.8384,0.8521,0.8542,0.8452,0.8453,0.8454,0,0.7266,0.7328,0.7432,0.7482,0.7531,0.7611,0.7667,0.7725,0.7781,0.7882,0.793,0.8023,0.8101,0.8246,0.8315,0.8405,0.8418,0.846,0.8432,0.8417,0.8421,0.8417,0.8424,0.8465,0.8465,0.8466,0.8466,0,0.735,0.7377,0.7455,0.7544,0.7609,0.7682,0.7755,0.7794,0.7865,0.7927,0.8021,0.8081,0.8201,0.8294,0.8391,0.8444,0.8468,0.8474,0.849,0.8478,0.8454,0.8469,0.8351,0.8471,0.8471,0.847,0.847,0.847,0.7402,0.7459,0.7541,0.7627,0.7688,0.7756,0.7817,0.7875,0.7953,0.8055,0.8085,0.8182,0.8266,0.8398,0.8452,0.853,0.8527,0.855,0.8556,0.8561,0.8562,0.844,0.8548,0.8548,0.8548,0.8548,0.8548,0,0.7489,0.7544,0.7622,0.7723,0.7791,0.7806,0.7889,0.7945,0.803,0.8105,0.8181,0.8289,0.8379,0.8455,0.8549,0.8597,0.8611,0.862,0.8618,0.863,0.8558,0.8536,0.8608,0.8608,0.8608,0.8608,0.8608,0.8608,0.7543,0.764,0.7676,0.7805,0.7859,0.7954,0.8,0.8064,0.8124,0.8242,0.8318,0.8366,0.8442,0.8542,0.8626,0.8646,0.868,0.8687,0.871,0.8642,0.8635,0.8629,0.8608,0.8694,0.8694,0.8776,0.8776,0.8777]}]]